Location: Arbon
(43.0005°N, 0.7472°E)
Time: 16:06:56
(UTC+00:00)

X-37B - Visible Passes

Search period start: 27 October 2020 00:00
Search period end: 06 November 2020 00:00
Orbit: 382 x 392 km, 45.0° (Epoch: 15 October)

Date Brightness Start Highest point End Pass type
(mag) Time Alt. Az. Time Alt. Az. Time Alt. Az.
31 Oct 3.7 05:21:35 10° SSE 05:22:53 12° SE 05:24:12 10° ESE visible
01 Nov 2.2 05:57:36 10° SW 06:00:32 35° SSE 06:03:29 10° E visible
02 Nov 2.9 04:59:49 11° SSW 05:02:07 21° SSE 05:04:36 10° E visible
03 Nov 3.8 04:04:29 11° SE 04:04:29 11° SE 04:05:04 10° ESE visible
03 Nov 1.1 05:36:47 10° WSW 05:39:55 57° SSE 05:43:04 10° ENE visible
04 Nov 1.9 04:41:18 34° SSE 04:41:26 35° SSE 04:44:23 10° E visible
05 Nov 0.5 05:17:58 31° WSW 05:19:21 87° SSE 05:22:33 10° ENE visible
